Location: UBC Liquid-Mirror Observatory
(49.2876°N, 122.5728°W)
Time: 14:42:39
(UTC-07:00)

Daily predictions for brighter satellites

Satellite Brightness Start Highest point End
(mag) Time Altitude Azimuth Time Altitude Azimuth Time Altitude Azimuth
Envisat 3.0 20:38:18 10° SSE 20:43:21 72° ENE 20:48:26 10° N
Cosmos 2026 Rocket 4.3 20:38:37 10° SSW 20:44:59 80° W 20:51:25 10° N
NOSS 2-3 (D) 4.5 20:45:51 10° S 20:50:12 37° ESE 20:55:14 10° NE
CZ-4B DEB 4.2 20:48:04 10° ESE 20:50:12 19° ENE 20:52:21 10° NNE
CZ-2D R/B 4.0 20:46:31 10° S 20:50:18 56° W 20:54:07 10° NNW
H-2A R/B 3.7 20:50:02 10° E 20:53:13 17° ENE 20:56:22 10° NNE
Cosmos 1697 Rocket 4.3 20:48:31 10° WSW 20:53:48 40° NW 20:59:09 10° NNE
EXPRESS MD2 3.4 20:51:28 10° SW 20:54:01 40° SSE 20:58:17 10° ENE
Okean 2 Rocket 4.0 20:50:04 10° SSW 20:54:30 57° WNW 20:58:59 10° N
Meteor 2-4 Rocket 3.7 20:52:52 10° N 20:58:26 80° ENE 21:04:08 10° SSE
USA 186 2.7 20:58:20 10° S 21:01:39 53° W 21:04:58 10° NNW
Helios 1B rocket 3.3 21:01:29 10° NE 21:05:03 28° E 21:08:38 10° SSE
Cosmos 1655 Rocket 4.4 21:00:04 10° SSW 21:06:21 74° W 21:12:44 10° N
SPOT 5 4.0 21:12:52 12° ESE 21:16:23 27° ENE 21:20:13 10° N
ATLAS 2AS CENTAUR R/B 3.2 21:09:15 10° SSW 21:16:43 53° ESE 21:24:32 10° NE
Lacrosse 5 2.3 21:13:41 10° SSW 21:18:23 39° SE 21:23:06 10° ENE
Cosmos 1452 Rocket 4.5 21:15:58 10° SW 21:21:08 53° WNW 21:26:20 10° NNE
CENTAUR R/B 4.2 21:15:25 10° NW 21:21:57 33° NNE 21:29:08 10° E
Cosmos 1420 Rocket 4.4 21:17:01 10° SSW 21:22:10 70° WNW 21:27:23 10° NNE
SL-8 R/B 3.9 21:17:40 10° W 21:22:25 63° SSW 21:26:12 16° ESE
Cosmos 883 Rocket 4.5 21:16:29 10° N 21:22:39 84° E 21:28:48 10° S
NOSS 3-1 (A) 4.5 21:18:05 10° WSW 21:23:56 52° NW 21:30:40 10° NE
Cosmos 1331 Rocket 4.5 21:20:03 10° S 21:24:48 38° ESE 21:29:38 10° NE
SeaSat 1 2.4 21:20:29 10° NE 21:25:24 64° ESE 21:30:18 10° SSW
NOSS 2-3 (E) 3.9 21:22:10 10° SSW 21:26:56 70° SE 21:32:38 10° NE
Tiangong 1 3.3 21:26:43 10° SW 21:27:40 11° SSW 21:28:35 10° S
Cosmos 220 Rocket 4.3 21:25:14 10° NNW 21:29:30 66° WSW 21:33:48 10° S
BREEZE-M DEB (TANK) 1.6 21:28:29 10° SW 21:31:03 37° SSE 21:31:42 28° ESE
Cosmos 1025 Rocket 2.9 21:28:46 10° N 21:33:03 79° E 21:37:04 12° SSE
Okean 2 3.3 21:29:31 10° N 21:33:38 69° E 21:37:03 14° SSE
Okean 1 Rocket 3.0 21:29:34 10° S 21:33:55 78° E 21:38:20 10° NNE
Cosmos 1300 Rocket 3.8 21:30:19 10° SSW 21:34:36 72° W 21:38:57 10° N
YAOGAN 6 3.0 21:31:41 10° S 21:35:11 61° W 21:38:41 10° NNW
ARGOS 3.4 21:31:25 15° SE 21:35:38 51° ENE 21:40:51 10° N
ERBS 3.9 21:35:34 10° W 21:38:50 38° NNW 21:42:07 10° NE
Abrixas rocket 2.2 21:37:33 10° W 21:40:48 67° S 21:42:28 26° ESE
Cosmos 2263 Rocket 3.2 21:35:37 10° NW 21:41:00 43° WSW 21:46:19 10° S
Okean 1-7 Rocket 3.6 21:39:14 10° N 21:43:45 87° W 21:47:54 12° S
Cosmos 2278 Rocket 3.5 21:39:57 10° NNW 21:44:51 29° NE 21:48:29 16° E
Cosmos 1515 3.6 21:41:26 10° N 21:45:16 78° E 21:47:54 19° SSE
Cosmos 1844 Rocket 2.9 21:42:32 10° NNW 21:48:10 59° ENE 21:51:50 22° SE
Cosmos 2322 Rocket 2.8 21:43:42 10° SW 21:49:22 62° WNW 21:55:01 10° NNE
Resurs 01 Rocket 4.2 21:46:17 10° SW 21:49:31 19° W 21:52:45 10° NW
Molniya-1 3.5 21:49:21 10° NW 21:51:55 81° NE 21:53:14 33° SE
Cosmos 1818 4.4 21:50:29 19° SSE 21:53:02 27° ESE 21:57:33 10° ENE
Cosmos 1975 3.4 21:52:10 26° SE 21:53:42 37° E 21:57:24 10° NNE
SPOT 1/Viking Rocket 4.0 21:51:21 22° SE 21:54:23 47° ENE 21:59:23 10° N
Cosmos 2237 4.4 21:50:37 10° S 21:56:01 47° ESE 22:01:28 10° NE
YAOGAN 11 4.4 21:54:27 26° SE 21:56:36 50° ENE 22:00:48 10° N
USA 215 4.2 21:50:35 10° ENE 21:56:46 47° N 22:02:58 10° WNW
Terra 3.1 21:55:49 20° E 21:57:46 26° ENE 22:01:41 10° N
Meteor 1-29 2.8 21:55:20 10° NNE 21:58:47 85° ESE 22:01:32 15° SSW
Helios 1A 4.1 21:55:10 10° S 21:59:12 43° W 22:03:17 10° NNW
NOSS 2-3 (C) 4.3 21:55:49 10° SW 22:00:40 74° NW 22:06:35 10° NE
SL-16 R/B 3.1 21:56:11 10° SW 22:01:43 51° NW 22:07:16 10° NNE
H-2A R/B 4.0 22:00:58 14° E 22:02:22 16° ENE 22:05:06 10° NNE
Cosmos 1500 3.1 22:01:57 23° S 22:04:15 67° E 22:08:07 10° NNE
MetOp-B 4.2 22:00:52 18° SSE 22:04:59 83° WSW 22:10:23 10° NNW
Cosmos 724 4.4 22:00:39 10° NW 22:06:34 68° NE 22:09:48 27° SE
Cosmos 2315 Rocket 4.4 22:00:27 10° NNW 22:06:38 64° W 22:12:49 10° S
Cosmos 2219 Rocket 3.1 22:06:05 26° ESE 22:06:54 27° ESE 22:11:33 10° NE
BREEZE M DEB (TANK) 3.1 21:59:27 10° W 22:07:10 87° N 22:08:43 30° E
NOSS 3-2 (A) 4.0 22:00:30 10° NW 22:07:52 81° NE 22:13:01 25° SE
USA 245 3.6 22:05:51 25° SSE 22:08:42 82° ENE 22:12:42 10° NNW
USA 238 DEB 4.0 22:03:06 10° NW 22:10:07 65° SW 22:14:51 22° SSE
USA 238 4.0 22:03:12 10° NW 22:10:13 66° SW 22:14:57 22° SSE
ERS-1 Rocket 3.3 22:06:41 16° S 22:10:43 63° WSW 22:15:44 10° NNW
Meteor 1-12 Rocket 4.3 22:09:22 21° SSE 22:13:00 56° E 22:18:31 10° NNE
Cosmos 2322 3.6 22:07:22 10° SSW 22:13:00 78° ESE 22:18:43 10° NNE
Cosmos 1626 Rocket 4.1 22:15:35 10° N 22:19:41 40° ENE 22:20:36 36° ESE
Cosmos 2360 Rocket 2.3 22:16:11 10° SSW 22:21:49 78° WNW 22:27:29 10° NNE
Cosmos 1892 Rocket 3.7 22:18:08 10° NNW 22:22:34 72° W 22:24:47 29° S
COSMOS 2428 2.8 22:19:31 15° S 22:24:06 55° ESE 22:29:42 10° NE
ATLAS 3B R/B 3.3 22:17:59 10° NW 22:24:23 47° WSW 22:28:26 21° S
Cosmos 1844 3.7 22:21:21 10° NNW 22:27:04 86° ENE 22:29:39 35° SSE
ATLAS CENTAUR R/B 3.4 22:25:28 10° NNW 22:27:56 17° NNE 22:29:33 13° ENE
Cosmos 1238 Rocket 4.3 22:22:37 10° NNW 22:29:21 72° W 22:33:56 20° S
Cosmos 1437 Rocket 3.0 22:30:01 47° ESE 22:30:09 48° E 22:33:58 10° NNE
H-2A R/B 1.9 22:29:40 32° S 22:32:03 83° WSW 22:37:03 10° NNW
Cosmos 1745 Rocket 3.9 22:30:27 28° SSE 22:33:42 65° E 22:39:48 10° NNE
Cosmos 2333 Rocket 2.7 22:36:58 36° ESE 22:37:21 36° ESE 22:42:29 10° NE
Cosmos 405 3.4 22:36:26 32° SW 22:37:51 61° WNW 22:41:27 10° N
Helios 1B rocket 4.2 22:36:43 10° N 22:40:22 31° WNW 22:44:01 10° SW
Cosmos 1544 Rocket 3.6 22:38:34 33° SSW 22:40:34 83° W 22:45:03 10° N
Cosmos 2333 4.1 22:40:25 20° SSW 22:44:22 72° ESE 22:50:00 10° NNE
Cosmos 1302 Rocket 4.0 22:39:47 11° SSW 22:44:49 83° WNW 22:50:09 10° NNE
IGS 5A 3.5 22:46:13 57° ESE 22:46:39 62° ENE 22:50:48 10° N
NOSS 3-2 (C) 4.0 22:39:40 10° NW 22:47:04 83° SW 22:50:54 35° SSE
GP-B 3.2 22:42:43 10° N 22:47:07 54° E 22:47:27 52° ESE
BREEZE-M DEB (TANK) 3.9 22:43:09 10° WSW 22:47:31 84° SSE 23:05:52 10° E
Cosmos 1666 2.7 22:49:48 63° ENE 22:49:48 63° ENE 22:53:26 10° NNE
COSMOS 2455 3.9 22:44:51 10° NNW 22:50:26 37° NE 22:53:13 25° E
Cosmos 968 Rocket 3.9 22:46:28 10° NNW 22:51:27 47° ENE 22:52:34 40° E
Aureole 2 Rocket 3.8 22:53:55 27° NE 22:53:55 27° NE 22:55:33 10° NNE
Cosmos 1455 Rocket 3.2 22:51:15 37° SSW 22:52:58 72° WNW 22:57:28 10° N
Cosmos 2237 Rocket 3.0 22:54:11 33° E 22:54:11 33° E 22:58:40 10° NE
SPOT 5 3.7 22:52:07 26° SSW 22:54:18 43° W 22:58:43 10° NNW
Cosmos 1386 Rocket 4.4 22:54:44 37° S 22:57:22 77° E 23:03:42 10° NNE
Cosmos 1842 3.2 22:53:51 10° N 22:57:40 69° ENE 22:57:40 69° ENE
Cosmos 1980 4.1 23:00:19 41° ESE 23:00:19 41° ESE 23:05:27 10° NE
Lacrosse 5 2.4 22:56:12 10° WSW 23:01:14 61° NNW 23:06:17 10° NE
BREEZE-M DEB (TANK) 4.1 22:43:57 10° WSW 23:04:41 74° SSE 23:08:20 21° E
Cosmos 1743 3.0 23:06:29 56° WSW 23:06:50 59° WNW 23:10:38 10° N
Cosmos 1241 Rocket 4.5 23:00:37 10° SW 23:07:12 88° NW 23:13:42 10° NE
ATLAS 2AS CENTAUR R/B 3.7 23:00:04 10° WSW 23:07:51 56° NW 23:15:53 10° NE
EXPRESS MD2 4.0 23:07:55 10° W 23:11:46 83° N 23:19:57 10° E
CENTAUR R/B 3.2 23:06:18 10° NW 23:13:58 71° NE 23:17:39 37° ESE
Cosmos 2297 4.1 23:11:05 10° NNW 23:16:39 54° NE 23:17:53 45° E
NOSS 3-4 (A) 3.4 23:16:06 45° S 23:17:54 63° SE 23:24:22 10° NE
NOSS 3-4 (C) 3.4 23:16:18 46° S 23:18:00 63° SE 23:24:28 10° NE
Timation 1 Rocket 4.4 23:12:07 10° NNW 23:18:05 71° WSW 23:19:30 52° S
CZ-4B R/B 4.4 23:15:39 10° NNE 23:18:58 31° ENE 23:18:58 31° ENE
DMSP B5D2-2 4.2 23:17:31 10° N 23:22:46 71° WNW 23:24:35 41° SW
CARTOSAT-1 4.0 23:24:49 51° WSW 23:25:04 52° W 23:29:19 10° NNW
DELTA 2 DEB (DPAF) 4.4 23:26:41 56° ENE 23:26:41 56° ENE 23:30:57 10° N
BREEZE-M (TANK) 3.9 23:18:34 10° WNW 23:27:46 41° SW 23:27:53 41° SW
ALOS 2 4.2 23:28:48 24° ENE 23:28:48 24° ENE 23:32:12 10° N
Cosmos 2278 Rocket 2.3 23:23:46 10° NNW 23:29:24 64° WSW 23:30:19 55° SSW
ARGOS Delta rocket 3.6 23:26:22 10° NNE 23:30:57 87° E 23:30:57 87° E
Cosmos 1844 Rocket 4.2 23:27:03 10° NW 23:31:42 26° WSW 23:33:29 22° SW
Cosmos 1602 Rocket 4.5 23:29:44 10° NNW 23:33:47 39° W 23:34:08 38° WSW
Terra 2.4 23:34:42 44° WSW 23:35:17 46° W 23:39:53 10° NNW
Cosmos 1818 3.9 23:30:51 10° SW 23:36:15 64° NW 23:41:42 10° NE
H-2A R/B 2.2 23:38:05 70° WNW 23:38:05 70° WNW 23:42:16 10° NNW
Cosmos 2181 Rocket 4.0 23:32:22 10° N 23:38:51 84° W 23:40:18 57° S
USA 215 3.9 23:33:40 14° E 23:39:10 52° NNE 23:45:29 10° WNW
Cosmos 1953 Rocket 3.9 23:35:54 10° N 23:39:51 59° NE 23:39:51 59° NE
Cosmos 1709 Rocket 3.9 23:39:58 53° SSW 23:41:32 83° W 23:47:51 10° N
USA 81 4.2 23:39:56 10° NNW 23:45:10 63° W 23:45:48 58° SW
CZ-2C R/B 3.6 23:41:43 10° NNE 23:45:56 34° ENE 23:45:56 34° ENE
SL-19 R/B 4.4 23:40:27 10° NNE 23:46:49 88° E 23:48:12 58° SSW
CZ-2C R/B 3.2 23:48:33 54° ENE 23:48:33 54° ENE 23:53:06 10° N
Cosmos 2219 Rocket 2.6 23:47:43 29° SW 23:50:30 59° WNW 23:56:06 10° NNE
Meteor 2-13 Rocket 4.3 23:52:15 66° SE 23:52:46 70° E 23:58:54 10° NNE
